Regional Weather Roundup
Issued by NWS Newport/Morehead, NC

Current Version | Previous Version | Text Only | Print | Product List | Glossary On
Versions: 1 2 3 4 5 6 7 8 9 10 11 12 13 14 15 16 17 18 19 20 21 22 23 24 25 26 27 28 29 30 31 32 33 34 35 36 37 38 39 40 41 42 43 44 45 46 47 48 49 50
247
ASUS42 KMHX 270125
RWRMHX
WEATHER ROUNDUP FOR EASTERN NORTH CAROLINA
NATIONAL WEATHER SERVICE NEWPORT/MOREHEAD CITY NC
900 PM EDT MON JUN 26 2017

NOTE: "FAIR" INDICATES FEW OR NO CLOUDS BELOW 12,000 FEET
WITH NO SIGNIFICANT WEATHER AND/OR OBSTRUCTIONS TO VISIBILITY

NCZ015>017-031-032-045>047-102-103-270200-
NORTH COAST

CITY           SKY/WX    TMP DP  RH WIND       PRES   REMARKS
EDENTON        CLEAR     76  61  58 CALM      30.03S
ELIZABETH CITY CLEAR     74  60  61 SE5       30.02S
KITTY HAWK     CLEAR     71  64  76 CALM      30.02S
MANTEO         CLEAR     71  59  66 E3        30.03S

$$

NCZ045>047-081-094-103-104-270200-
CENTRAL COAST

CITY           SKY/WX    TMP DP  RH WIND       PRES   REMARKS
FRISCO         NOT AVBL

$$

NCZ095-097-098-100-101-270200-
SOUTHERN COAST

CITY           SKY/WX    TMP DP  RH WIND       PRES   REMARKS
BEAUFORT       CLEAR     76  69  79 CALM      30.02S
CEDAR ISLAND   NOT AVBL
JACKSONVILLE   CLEAR     73  69  87 S3        30.02S
PINEY ISLAND   CLEAR    N/A N/A N/A CALM      30.03R
WILMINGTON     CLEAR     74  67  78 CALM      30.03S


$$

NCZ011>013-027>030-043-044-078>080-089-090>093-098-270200-
COASTAL PLAIN

CITY           SKY/WX    TMP DP  RH WIND       PRES   REMARKS
AHOSKIE          N/A     68  64  88 CALM      30.03R
CLINTON        CLEAR     72  64  74 CALM      30.03S
ELIZABETHTOWN  NOT AVBL
GOLDSBORO      CLEAR     74  60  60 CALM      30.01S
GREENVILLE     CLEAR     72  63  73 CALM      30.04S
HAVELOCK       PTCLDY    73  65  75 SE5       30.03S
KENANSVILLE    CLEAR     70  63  78 CALM      30.04R
KINSTON        CLEAR     70  63  78 CALM      30.03S
NEW BERN       PTCLDY    71  66  84 SE3       30.04R
RICHLANDS      NOT AVBL
ROCKY MOUNT    CLEAR     71  60  68 CALM      30.03R
WASHINGTON     CLEAR    N/A N/A N/A S3        30.03S
WHITEVILLE     CLEAR     73  65  76 CALM      30.03S

$$

AMZ130-135-150-152-154-156-158-170-250-252-270-ANZ085-086-088-633-658-670-270200-
MARINE OBSERVATIONS

STATION/POSITION TIME  TEMP    WIND        PRES    WAVE   SWELL
                       AIR SEA DIR/SP/G            HT/PER HT/PER
                 (UTC) (F)     (DEG/KT/KT) (MB)    (FT/S) (FT/S)
CHESAPEAKE LIGHT NOT AVBL
64 E VA BEACH    0050   74 76   60/  4/  6 1017.3    1/ 8   2/ 8
DUCK             0100   73 74  130/  7/  8 1016.4
2 E DUCK         NOT AVBL
OREGON INLET     0100   74 79   70/  5/  8 1016.7
13E OREGON INLT  0048      74                N/A     2/ 8   2/ 8
HATTERAS CG      0100   76 79  160/  1/  2 1016.8
DIAMOND BUOY     0050   78 81  360/  6/  6 1016.5    2/ 8   2/ 8
CAPE LOOKOUT     0100   76      50/  2/  3 1016.5
BEAUFORT LAB     0100   78 79   70/  2/  4 1016.1
30 SE NEW RVR IN 0108   77 81   30/  4/  6 1016.8
30 SE NEW RVR IN 0113      81                N/A     2/ 7
27 SE WRIGHTSVLE 0108   77 81   20/  4/  6 1016.3
5 SE WRIGHTSVLE  0108   78 80  120/  2/  6 1016.5
225 S CAPE HAT   0050   78 80   90/ 10/ 12 1016.8    3/ 5   2/ 5
41 SE CHARLESTON 0110   78 81   40/ 10/ 12 1016.1

$$




USA.gov is the U.S. government's official web portal to all federal, state and local government web resources and services.